McConnell AFB, KS

11:12 PM CDT on April 27, 2017 (GMT -0500)
McConnell Air Force Base

Weather History for KIAB - October, 2012

Change the Weather History Date:

Sunday, October 28, 2012

  Actual Average Record
Temperature  
Mean Temperature 42 °F -  
Max Temperature 56 °F 62 °F 82 °F (2016)
Min Temperature 30 °F 44 °F 30 °F (2012)
Degree Days  
Heating Degree Days 22    
Moisture  
Dew Point 26 °F    
Average Humidity 53    
Maximum Humidity 83    
Minimum Humidity 32    
Precipitation  
Precipitation 0.00 in - - ()
Sea Level Pressure  
Sea Level Pressure 30.28 in    
Wind  
Wind Speed 6 mph (SE)    
Max Wind Speed 10 mph    
Max Gust Speed -    
Visibility 10 miles    
Events      
Averages and records for this station are not official NWS values.
T = Trace of Precipitation, MM = Missing Value Source: NWS Daily Summary

Daily Weather History Graph

Daily Weather History Graph

Search for Another Location

Airport or City:

Trip Planner

Search our weather history database for the weather conditions in past years. The results will help you decide how hot, cold, wet, or windy it might be!

Date:

Astronomy

Oct. 28, 2012 Rise Set
Actual Time 7:50 AM CDT 6:34 PM CDT
Civil Twilight 7:23 AM CDT 7:01 PM CDT
Nautical Twilight 6:52 AM CDT 7:32 PM CDT
Astronomical Twilight 6:22 AM CDT 8:02 PM CDT
Moon 5:52 PM CDT 6:45 AM CDT
Length of Visible Light 11h 37m
Length of Day
10h 43m
Waxing Gibbous, 99% of the Moon is Illuminated
Oct 28
Waxing Gibbous
Oct 29
Full
Nov 6
Last Quarter
Nov 13
New
Nov 20
First Quarter

Hourly Weather History & Observations

Time (CDT) Temp. Windchill Dew Point Humidity Pressure Visibility Wind Dir Wind Speed Gust Speed Precip Events Conditions
12:55 AM 37.8 °F 32.5 °F 25.5 °F 61% 30.29 in 10.0 mi East 6.9 mph - N/A   Clear
1:55 AM 36.3 °F 30.8 °F 26.1 °F 66% 30.29 in 10.0 mi East 6.9 mph - N/A   Clear
2:55 AM 35.2 °F 30.3 °F 26.2 °F 70% 30.29 in 10.0 mi East 5.8 mph - N/A   Clear
3:55 AM 34.7 °F 29.6 °F 26.6 °F 72% 30.30 in 10.0 mi ESE 5.8 mph - N/A   Clear
4:55 AM 33.8 °F 28.6 °F 26.8 °F 75% 30.29 in 10.0 mi ESE 5.8 mph - N/A   Clear
5:55 AM 31.6 °F 27.0 °F 26.2 °F 80% 30.31 in 10.0 mi SSE 4.6 mph - N/A   Clear
6:55 AM 31.1 °F 27.7 °F 26.1 °F 82% 30.31 in 10.0 mi SE 3.5 mph - N/A   Clear
7:55 AM 30.4 °F 25.6 °F 25.9 °F 83% 30.32 in 10.0 mi SSE 4.6 mph - N/A   Clear
8:55 AM 32.9 °F 28.5 °F 27.5 °F 81% 30.34 in 10.0 mi SE 4.6 mph - N/A   Clear
9:55 AM 39.2 °F 33.6 °F 28.9 °F 67% 30.35 in 10.0 mi SSE 8.1 mph - N/A   Clear
10:55 AM 43.9 °F 39.9 °F 28.4 °F 55% 30.34 in 10.0 mi SE 6.9 mph - N/A   Clear
11:55 AM 48.0 °F - 28.6 °F 47% 30.32 in 10.0 mi Variable 4.6 mph - N/A   Clear
12:55 PM 51.1 °F - 27.5 °F 40% 30.31 in 10.0 mi SE 4.6 mph - N/A   Scattered Clouds
1:55 PM 53.1 °F - 26.6 °F 36% 30.28 in 10.0 mi Variable 4.6 mph - N/A   Clear
2:55 PM 54.5 °F - 26.1 °F 33% 30.24 in 10.0 mi ESE 6.9 mph - N/A   Clear
3:55 PM 55.6 °F - 26.4 °F 33% 30.23 in 10.0 mi South 9.2 mph - N/A   Clear
4:55 PM 55.9 °F - 26.1 °F 32% 30.23 in 4.0 mi South 6.9 mph - N/A   Haze
5:55 PM 54.5 °F - 26.1 °F 33% 30.22 in 9.0 mi SE 8.1 mph - N/A   Clear
6:55 PM 50.4 °F - 27.1 °F 41% 30.22 in 10.0 mi SE 4.6 mph - N/A   Clear
7:55 PM 48.2 °F - 27.1 °F 44% 30.24 in 10.0 mi SE 6.9 mph - N/A   Clear
8:55 PM 46.8 °F - 26.6 °F 45% 30.25 in 10.0 mi ESE 6.9 mph - N/A   Clear
9:55 PM 47.5 °F - 24.6 °F 41% 30.25 in 10.0 mi ESE 9.2 mph - N/A   Overcast
10:55 PM 47.1 °F - 23.9 °F 40% 30.26 in 10.0 mi SE 9.2 mph - N/A   Overcast
11:07 PM 46.4 °F 41.5 °F 23.0 °F 40% 30.25 in 8.0 mi SE 10.4 mph - N/A   Overcast
11:12 PM 46.4 °F 41.5 °F 23.0 °F 40% 30.25 in 8.0 mi SE 10.4 mph - N/A   Overcast
11:55 PM 45.9 °F 41.7 °F 24.3 °F 43% 30.26 in 9.0 mi SSE 8.1 mph - N/A   Overcast